Dewpoint
18 17 16 15 14 13 14 14 11 12 14 14 16 14 14 15 15 16 17 18 18 26 44 46 46 46 47 48 49 50 49 39 44 60 63 63 62 62 63 63 64 64 64 64
18 17 18 19 16 13 11 11 13 15 16 15 15 15 16 17 17 17 18 27 43 44 43 44 44 44 45 46 47 48 49 50 47 53 60 61 61 62 63 63 63 64 64 64
22 22 22 16 15 14 16 17 17 17 17 18 16 13 15 17 17 33 44 44 42 40 40 41 41 42 42 43 44 45 47 49 51 53 59 62 62 63 63 63 63 63 64 64
18 20 22 21 20 20 17 18 16 16 17 11 16 9 13 15 16 37 42 41 40 39 38 38 39 39 39 40 41 42 44 47 49 53 57 60 59 59 60 62 62 63 63 63
12 15 16 15 15 17 15 18 18 18 17 17 15 12 12 16 14 33 41 41 40 38 36 36 36 37 38 38 39 41 42 45 48 50 54 60 60 60 60 62 63 63 63 63
15 20 18 18 19 18 19 19 18 19 18 14 13 11 6 12 20 36 41 40 37 36 35 35 35 35 36 37 37 38 40 42 45 48 52 58 60 60 60 61 62 62 62 62
19 17 21 24 21 20 20 18 10 10 14 9 16 14 10 25 39 40 39 37 36 35 33 33 33 34 34 35 35 36 38 40 43 46 51 55 61 60 60 60 61 61 61 62
9 12 20 19 13 12 16 19 12 9 10 13 20 15 15 39 39 39 38 36 35 34 32 32 31 31 33 34 34 35 37 38 42 45 49 57 60 61 60 61 61 60 60 61
17 17 20 16 16 13 17 20 21 19 22 15 12 18 35 36 35 37 36 35 33 32 30 30 30 30 32 33 34 35 36 38 41 45 48 60 61 61 61 61 61 60 60 60
21 15 21 19 15 12 15 11 12 24 8 2 2 13 16 30 32 35 34 33 31 29 29 29 29 30 31 32 33 34 35 37 40 43 47 58 61 61 60 60 61 60 61 60
19 13 16 13 10 8 8 6 16 21 23 7 -1 6 32 33 33 32 32 31 30 29 28 28 28 29 30 31 32 33 34 36 38 41 45 51 60 60 59 59 60 59 59 59
23 19 11 10 18 20 17 19 21 9 8 19 17 10 36 33 34 33 31 29 29 29 27 27 27 28 28 29 30 31 33 34 37 39 43 54 58 58 58 58 58 58 58 59
22 16 7 13 16 17 17 18 23 24 21 16 10 9 35 33 33 31 29 28 28 28 27 26 26 27 27 28 29 30 31 33 36 38 39 43 45 55 57 57 57 57 57 57
22 17 8 -1 9 16 16 18 17 17 14 9 11 12 17 18 30 29 28 28 28 28 27 26 26 26 27 27 28 28 30 32 35 36 37 37 38 41 47 57 57 56 57 56
22 14 18 15 16 20 18 16 17 16 16 13 11 11 15 18 29 28 28 27 26 26 25 25 25 26 26 26 26 27 29 30 32 34 35 35 35 35 37 40 46 56 56 55
26 17 21 16 16 15 12 12 14 13 13 13 12 13 17 29 28 26 26 26 25 25 24 25 25 25 25 25 26 26 28 28 30 31 32 34 34 33 32 34 36 38 40 40
22 19 15 8 12 9 2 9 14 17 23 19 17 18 28 26 24 24 24 25 24 24 24 24 25 25 26 26 26 26 27 27 27 29 30 32 33 33 32 31 31 32 33 34
20 18 15 11 12 -3 7 28 28 27 26 26 27 31 28 24 24 24 25 24 23 23 24 24 25 25 25 26 25 26 26 26 25 26 27 28 30 31 32 31 30 30 31 31
19 17 15 9 9 7 17 24 25 24 24 26 26 25 24 24 24 22 25 25 24 24 25 25 26 26 25 25 25 24 24 25 24 24 25 26 27 28 29 30 29 29 29 29
20 19 14 14 8 6 19 24 27 29 20 25 26 25 24 25 22 19 24 24 24 25 25 24 25 26 24 25 24 22 22 22 23 24 25 26 26 26 26 27 27 29 27 27
20 20 15 14 13 14 23 26 30 19 18 24 25 27 28 22 22 23 24 23 24 24 24 25 24 23 24 25 23 22 21 21 23 25 25 25 26 26 27 27 28 28 27 26
18 16 15 16 14 12 25 23 21 24 25 24 24 24 22 22 22 22 22 22 22 22 22 23 23 23 24 24 23 21 21 23 23 24 24 24 25 26 26 26 27 27 27 26
19 24 21 21 20 25 27 25 27 28 25 24 23 24 22 21 20 21 21 21 21 21 22 22 21 21 22 23 23 21 21 21 21 22 23 24 24 25 25 26 25 25 27 26
26 28 22 24 24 24 26 26 27 26 25 25 25 24 22 20 21 20 21 20 20 21 20 19 19 19 19 20 22 22 22 19 20 21 21 22 23 23 24 24 25 25 25 25
24 26 24 23 25 25 25 25 25 25 25 24 24 23 22 21 20 20 19 19 19 19 18 18 17 17 18 18 19 21 20 16 11 15 18 19 20 21 21 23 24 24 25 24
25 23 22 20 26 23 23 25 26 23 23 23 21 21 21 20 18 18 17 18 18 17 17 16 17 17 18 18 18 20 20 18 15 13 14 17 17 18 18 19 19 22 22 22
Wind_Speed
7 11 19 23 15 12 8 10 17 15 16 7 16 18 17 19 14 18 18 13 9 8 8 8 11 14 16 16 17 17 16 15 16 19 20 21 23 24 23 21 23 23 22 23
5 18 16 12 14 12 10 12 14 12 15 5 15 24 22 21 14 13 6 4 6 9 13 14 15 15 15 17 17 19 18 16 14 19 21 22 24 23 23 21 20 23 23 24
17 5 13 12 9 10 13 13 11 14 11 9 10 15 5 3 5 9 8 5 8 11 15 18 21 21 19 17 19 20 20 20 17 17 19 19 17 16 17 20 20 24 26 26
12 15 10 8 9 11 15 13 17 16 5 8 6 13 8 5 6 4 5 6 8 12 14 16 19 21 21 22 21 19 22 23 19 16 20 26 24 25 24 25 25 24 26 24
9 8 13 18 18 13 11 9 13 12 10 5 8 9 0 4 5 3 2 5 9 11 13 15 17 18 18 19 22 23 23 22 22 20 20 24 28 25 23 22 25 25 25 26
4 2 5 7 5 10 2 4 3 2 5 10 15 13 8 5 3 1 1 7 11 15 17 18 20 20 19 18 20 24 25 25 24 22 19 27 29 28 23 25 24 23 22 24
2 1 2 1 6 3 2 5 4 5 6 6 3 12 15 3 3 0 5 8 11 14 18 21 23 24 24 23 23 24 25 27 26 24 21 25 29 29 27 26 23 23 21 19
8 4 0 2 2 3 3 5 6 6 5 2 5 9 2 9 8 10 8 8 13 18 20 22 22 23 25 23 23 25 26 28 26 24 23 22 25 22 24 25 22 21 21 22
6 4 1 5 3 1 2 3 2 1 1 7 8 5 3 5 9 9 11 15 18 18 19 20 21 21 24 23 24 25 25 26 26 25 22 17 20 22 20 22 21 19 18 16
6 4 1 1 2 8 3 2 2 2 5 9 7 8 7 3 9 12 13 13 15 18 22 23 23 23 23 22 24 25 24 23 24 23 21 10 14 18 18 19 22 21 20 19
3 0 2 3 1 2 1 2 2 2 4 6 9 6 5 5 6 9 11 13 15 17 21 24 23 23 23 24 25 25 26 27 26 25 25 17 9 11 13 16 16 17 16 19
2 3 3 1 6 4 5 4 3 6 4 4 5 11 9 6 8 7 8 11 12 14 19 23 25 25 24 25 25 25 25 26 24 22 21 18 2 11 14 13 14 16 18 20
7 3 5 2 1 1 4 6 4 3 2 10 11 8 6 7 6 8 7 9 12 13 20 23 25 24 24 24 24 24 24 26 27 27 21 20 18 7 5 9 13 13 15 18
3 5 5 6 3 3 3 5 6 4 8 12 22 24 22 19 4 5 6 8 10 12 18 20 23 23 23 23 24 25 25 24 23 20 19 18 19 18 16 6 11 17 15 16
3 6 6 7 6 6 11 13 16 20 20 19 23 28 23 17 3 6 4 7 8 11 19 19 22 23 22 24 25 25 25 26 25 23 22 21 20 20 21 21 15 7 16 14
1 3 3 6 11 13 18 20 22 24 26 26 31 35 22 4 9 8 5 7 8 11 16 18 20 22 23 24 24 23 24 26 24 23 22 20 20 23 24 24 24 19 21 23
5 7 4 4 1 10 17 10 9 10 13 19 25 24 8 8 10 6 6 5 7 11 15 16 18 19 21 22 22 23 22 22 25 25 24 23 22 21 24 26 26 19 25 22
6 6 3 3 3 6 2 4 4 10 1 10 14 5 14 16 13 10 7 6 10 13 15 14 16 18 20 20 22 20 21 24 25 26 27 26 24 23 21 26 25 30 24 21
13 9 3 3 5 10 2 4 7 5 1 10 7 14 22 22 18 12 8 11 12 13 12 13 14 15 17 20 20 20 23 23 25 26 26 26 26 25 23 27 25 26 25 21
8 12 9 3 3 4 2 17 12 9 6 11 9 12 17 13 4 3 7 11 13 13 12 14 15 16 20 21 19 20 24 24 26 24 23 23 23 23 27 26 23 22 27 26
7 6 13 9 3 4 13 19 12 5 4 9 6 3 10 3 8 12 9 12 12 12 14 14 16 18 19 19 19 22 23 25 21 21 23 24 24 24 23 21 22 23 23 18
4 7 5 5 4 5 19 4 6 3 8 9 11 15 21 17 16 14 13 13 13 14 15 16 17 19 19 19 18 22 23 19 19 21 24 25 24 22 21 22 22 21 22 23
2 3 3 1 2 4 7 9 10 8 8 9 12 13 15 15 14 13 12 13 13 14 15 15 16 17 19 20 19 20 19 18 19 21 22 22 23 23 22 23 22 20 21 19
4 7 4 3 5 8 7 8 10 11 13 13 13 13 13 15 13 13 12 12 13 14 15 13 15 18 20 20 20 19 17 16 17 19 20 20 23 23 23 21 22 22 20 20
4 6 2 4 7 10 10 8 9 11 13 15 14 13 13 14 13 13 13 13 13 13 13 14 16 17 18 19 21 21 20 18 19 19 18 18 18 19 21 26 23 22 25 21
5 5 3 1 4 6 5 6 8 10 11 11 14 14 13 14 14 13 13 12 12 13 13 15 16 17 16 17 18 18 18 19 17 18 17 17 16 15 15 16 19 30 28 29
Wind_Direction
198 203 206 209 200 225 252 263 271 269 269 293 279 278 272 268 264 264 271 283 317 331 347 4 3 360 353 352 348 336 324 304 261 227 212 208 211 212 214 215 210 200 196 199
178 233 218 216 207 215 231 252 267 278 273 213 285 288 279 260 252 250 283 6 27 357 348 347 349 349 353 344 343 336 328 317 296 241 223 214 212 223 217 212 211 203 198 195
215 217 200 191 190 213 240 241 255 266 299 286 299 286 251 213 193 114 91 71 36 11 351 346 341 343 341 342 340 331 324 318 302 285 238 222 218 219 212 212 201 204 201 194
235 234 201 180 208 215 255 223 241 256 275 281 3 296 254 242 124 104 83 44 22 5 355 347 342 337 337 336 333 329 324 317 305 289 251 221 211 211 214 208 206 201 200 198
218 186 193 222 234 219 236 216 219 231 239 270 256 264 332 178 341 153 84 24 14 6 355 345 340 332 329 333 333 329 323 314 307 291 266 231 220 220 215 215 210 201 195 194
217 204 170 184 195 188 217 208 181 166 220 254 236 215 294 190 160 245 75 28 11 359 351 345 342 338 333 336 337 329 322 315 309 298 280 242 224 221 216 212 203 197 195 197
280 153 97 102 155 165 164 153 230 229 202 254 185 210 248 310 114 59 54 20 4 358 354 349 347 342 335 336 342 328 321 314 309 302 284 250 225 222 220 218 208 193 189 186
184 202 239 16 98 170 174 188 209 236 215 180 209 249 244 83 95 102 73 23 5 357 353 349 344 338 329 332 340 326 322 316 312 304 295 251 220 218 219 216 210 201 198 192
188 195 345 60 13 338 156 159 46 288 285 269 232 259 143 71 40 42 24 19 5 352 343 342 343 340 333 334 337 326 320 318 312 308 304 244 208 205 209 211 206 204 197 190
192 164 326 286 123 33 92 143 156 152 242 250 256 246 225 2 355 7 6 12 355 349 345 347 347 339 339 342 333 325 325 319 314 318 328 308 186 187 193 197 197 195 192 184
138 152 175 245 156 157 45 181 173 210 200 249 276 247 86 61 24 2 6 3 357 354 347 346 343 343 347 344 337 335 335 333 336 339 322 342 177 176 177 191 190 184 172 169
66 107 185 238 337 219 159 168 145 183 219 233 267 263 91 87 75 47 11 2 2 358 353 351 346 347 352 345 340 339 338 339 342 342 336 4 167 172 171 175 169 168 169 166
167 159 149 118 193 97 149 142 129 115 206 233 236 251 152 102 64 60 10 10 2 357 10 352 349 351 348 345 341 342 348 346 346 352 1 16 12 1 168 162 149 149 156 150
125 180 220 215 138 121 196 213 211 202 233 254 239 275 261 291 303 55 12 19 5 350 27 351 352 352 350 346 346 348 350 354 353 360 15 18 16 10 13 179 174 157 160 153
167 211 213 246 265 229 251 252 247 244 245 247 262 255 270 288 272 85 38 24 11 357 29 357 355 353 352 354 353 355 355 359 359 9 17 20 25 24 26 25 22 181 150 132
143 179 178 249 246 255 269 263 255 255 261 261 260 264 268 146 120 84 47 32 12 12 27 1 357 359 360 358 355 357 359 4 7 17 20 20 34 39 35 34 31 26 78 79
169 169 167 244 197 302 283 257 221 232 259 258 250 249 161 142 105 88 59 27 28 26 31 6 360 357 1 0 359 2 2 7 17 21 22 24 30 42 50 42 42 34 48 63
168 167 169 266 290 242 69 76 270 282 152 348 317 185 153 127 105 80 53 44 40 35 30 12 9 6 5 2 7 8 14 20 21 23 26 25 30 38 47 60 50 43 41 46
214 191 196 240 228 291 327 23 333 334 302 18 37 113 126 124 108 70 59 53 48 41 29 19 10 13 12 13 5 16 25 27 27 25 25 27 30 36 41 49 52 61 44 42
177 198 197 174 246 266 351 324 310 277 243 21 3 141 147 163 144 99 57 56 50 40 34 27 20 24 24 14 12 24 29 28 26 23 28 31 35 39 44 50 47 58 66 46
120 164 205 216 260 292 348 323 311 179 350 17 359 242 160 100 86 112 83 62 51 42 36 33 30 33 22 19 21 31 31 28 18 27 35 37 37 39 42 47 52 58 67 69
165 162 182 194 222 283 359 359 37 71 57 53 58 90 106 103 97 92 78 66 53 45 37 34 37 34 25 24 29 36 33 21 27 31 38 39 40 42 43 47 48 49 56 59
91 330 130 350 99 65 29 45 35 68 94 79 85 86 102 104 96 88 80 68 59 52 46 44 46 41 33 31 35 37 27 24 32 39 39 44 44 44 45 48 47 48 49 53
23 14 112 157 83 72 66 61 57 73 83 85 87 94 97 100 96 88 78 70 64 53 52 48 50 45 36 31 34 34 33 33 42 46 44 41 48 46 46 50 48 49 46 50
345 332 48 90 126 119 82 69 84 87 90 91 85 92 97 100 90 91 82 70 63 57 53 52 52 49 42 37 35 30 31 37 47 49 46 48 50 51 53 51 50 55 53 54
9 359 7 106 31 81 79 79 97 98 95 99 103 95 87 97 96 90 79 73 69 60 52 50 48 48 44 43 39 34 35 40 45 50 48 45 47 47 52 59 59 51 55 54